Time,TemperatureF,DewpointF,PressureIn,WindDirection,WindDirectionDegrees,WindSpeedMPH,WindSpeedGustMPH,Humidity,HourlyPrecipIn,Conditions,Clouds,dailyrainin,SoftwareType,DateUTC
2013-10-09 00:01:00,59.7,54.5,29.81,WSW,250,0.0,11.0,83,0.00,,,0.00,Wunderground v.1.15,2013-10-09 07:01:00,
2013-10-09 00:11:00,59.8,54.3,29.80,SE,134,1.0,11.0,82,0.00,,,0.00,Wunderground v.1.15,2013-10-09 07:11:00,
2013-10-09 00:21:00,59.7,54.2,29.80,SE,134,0.0,11.0,82,0.00,,,0.00,Wunderground v.1.15,2013-10-09 07:21:00,
2013-10-09 00:31:00,59.6,54.4,29.80,SE,134,0.0,11.0,83,0.00,,,0.00,Wunderground v.1.15,2013-10-09 07:31:00,
2013-10-09 00:41:00,59.5,54.3,29.80,SE,134,0.0,11.0,83,0.00,,,0.00,Wunderground v.1.15,2013-10-09 07:41:00,
2013-10-09 00:46:00,59.5,54.3,29.80,SE,134,0.0,11.0,83,0.00,,,0.00,Wunderground v.1.15,2013-10-09 07:46:00,
2013-10-09 00:56:00,59.5,54.3,29.80,SE,134,0.0,11.0,83,0.00,,,0.00,Wunderground v.1.15,2013-10-09 07:56:00,
2013-10-09 01:01:00,59.7,54.5,29.79,SE,145,0.0,11.0,83,0.00,,,0.00,Wunderground v.1.15,2013-10-09 08:01:00,
2013-10-09 01:11:00,59.5,54.3,29.79,WSW,252,0.0,11.0,83,0.00,,,0.00,Wunderground v.1.15,2013-10-09 08:11:00,
2013-10-09 01:21:00,59.6,54.4,29.79,WSW,255,1.0,11.0,83,0.00,,,0.00,Wunderground v.1.15,2013-10-09 08:21:00,
2013-10-09 01:31:00,59.7,54.2,29.79,West,271,1.0,11.0,82,0.00,,,0.00,Wunderground v.1.15,2013-10-09 08:31:00,
2013-10-09 01:41:00,59.6,54.1,29.79,ESE,119,0.0,11.0,82,0.00,,,0.00,Wunderground v.1.15,2013-10-09 08:41:00,
2013-10-09 01:51:00,59.1,53.9,29.79,ESE,115,0.0,11.0,83,0.00,,,0.00,Wunderground v.1.15,2013-10-09 08:51:00,
2013-10-09 01:56:00,59.0,53.8,29.79,ESE,105,1.0,11.0,83,0.00,,,0.00,Wunderground v.1.15,2013-10-09 08:56:00,
2013-10-09 02:06:00,58.8,54.0,29.79,SE,131,0.0,11.0,84,0.00,,,0.00,Wunderground v.1.15,2013-10-09 09:06:00,
2013-10-09 02:11:00,58.6,53.8,29.78,SE,128,1.0,11.0,84,0.00,,,0.00,Wunderground v.1.15,2013-10-09 09:11:00,
2013-10-09 02:21:00,58.3,53.5,29.78,SSE,148,0.0,11.0,84,0.00,,,0.00,Wunderground v.1.15,2013-10-09 09:21:00,
2013-10-09 02:26:00,58.2,53.7,29.77,SSE,148,0.0,11.0,85,0.00,,,0.00,Wunderground v.1.15,2013-10-09 09:26:00,
2013-10-09 02:36:00,58.1,53.6,29.77,ESE,114,0.0,11.0,85,0.00,,,0.00,Wunderground v.1.15,2013-10-09 09:36:00,
2013-10-09 02:41:00,57.8,53.3,29.77,ESE,115,0.0,11.0,85,0.00,,,0.00,Wunderground v.1.15,2013-10-09 09:41:00,
2013-10-09 02:51:00,57.6,53.1,29.77,ESE,114,0.0,11.0,85,0.00,,,0.00,Wunderground v.1.15,2013-10-09 09:51:00,
2013-10-09 03:01:00,57.1,53.0,29.76,ESE,114,0.0,11.0,86,0.00,,,0.00,Wunderground v.1.15,2013-10-09 10:01:00,
2013-10-09 03:11:00,57.0,52.9,29.77,ESE,114,0.0,11.0,86,0.00,,,0.00,Wunderground v.1.15,2013-10-09 10:11:00,
2013-10-09 03:21:00,56.1,51.7,29.76,SSE,153,0.0,11.0,85,0.00,,,0.00,Wunderground v.1.15,2013-10-09 10:21:00,
2013-10-09 03:31:00,55.9,52.1,29.76,SSE,153,0.0,11.0,87,0.00,,,0.00,Wunderground v.1.15,2013-10-09 10:31:00,
2013-10-09 03:36:00,55.9,52.1,29.76,SW,218,0.0,11.0,87,0.00,,,0.00,Wunderground v.1.15,2013-10-09 10:36:00,
2013-10-09 03:46:00,56.1,52.0,29.76,SSE,150,0.0,11.0,86,0.00,,,0.00,Wunderground v.1.15,2013-10-09 10:46:00,
2013-10-09 03:51:00,55.6,51.5,29.76,SSE,148,0.0,11.0,86,0.00,,,0.00,Wunderground v.1.15,2013-10-09 10:51:00,
2013-10-09 04:01:00,55.4,51.6,29.76,SE,139,0.0,11.0,87,0.00,,,0.00,Wunderground v.1.15,2013-10-09 11:01:00,
2013-10-09 04:11:00,55.6,52.1,29.75,ESE,120,0.0,11.0,88,0.00,,,0.00,Wunderground v.1.15,2013-10-09 11:11:00,
2013-10-09 04:16:00,55.5,52.0,29.75,ESE,120,0.0,11.0,88,0.00,,,0.00,Wunderground v.1.15,2013-10-09 11:16:00,
2013-10-09 04:26:00,55.7,52.5,29.75,ESE,120,0.0,11.0,89,0.00,,,0.00,Wunderground v.1.15,2013-10-09 11:26:00,
2013-10-09 04:31:00,55.1,51.6,29.75,ESE,120,1.0,11.0,88,0.00,,,0.00,Wunderground v.1.15,2013-10-09 11:31:00,
2013-10-09 04:41:00,55.0,51.8,29.75,SE,128,0.0,11.0,89,0.00,,,0.00,Wunderground v.1.15,2013-10-09 11:41:00,
2013-10-09 04:46:00,55.3,52.1,29.75,SE,139,0.0,11.0,89,0.00,,,0.00,Wunderground v.1.15,2013-10-09 11:46:00,
2013-10-09 04:56:00,55.7,52.8,29.75,West,262,0.0,11.0,90,0.00,,,0.00,Wunderground v.1.15,2013-10-09 11:56:00,
2013-10-09 05:01:00,55.9,52.7,29.75,West,264,0.0,11.0,89,0.00,,,0.00,Wunderground v.1.15,2013-10-09 12:01:00,
2013-10-09 05:11:00,55.4,51.9,29.75,West,263,0.0,11.0,88,0.00,,,0.00,Wunderground v.1.15,2013-10-09 12:11:00,
2013-10-09 05:16:00,55.5,52.3,29.75,West,263,0.0,11.0,89,0.00,,,0.00,Wunderground v.1.15,2013-10-09 12:16:00,
2013-10-09 05:26:00,55.5,52.3,29.75,SE,131,0.0,11.0,89,0.00,,,0.00,Wunderground v.1.15,2013-10-09 12:26:00,
2013-10-09 05:31:00,55.6,52.4,29.74,SE,131,1.0,11.0,89,0.00,,,0.00,Wunderground v.1.15,2013-10-09 12:31:00,
2013-10-09 05:41:00,55.8,52.6,29.74,SSW,201,1.0,11.0,89,0.00,,,0.00,Wunderground v.1.15,2013-10-09 12:41:00,
2013-10-09 05:46:00,55.9,52.7,29.74,SW,229,2.0,2.0,89,0.00,,,0.00,Wunderground v.1.15,2013-10-09 12:46:00,
2013-10-09 05:51:00,56.0,52.8,29.75,WSW,257,2.0,11.0,89,0.00,,,0.00,Wunderground v.1.15,2013-10-09 12:51:00,
2013-10-09 06:01:00,56.5,53.3,29.75,West,267,1.0,11.0,89,0.00,,,0.00,Wunderground v.1.15,2013-10-09 13:01:00,
2013-10-09 06:11:00,56.8,53.3,29.75,SSW,204,2.0,3.0,88,0.00,,,0.00,Wunderground v.1.15,2013-10-09 13:11:00,
2013-10-09 06:21:00,56.8,53.3,29.75,WSW,255,3.0,11.0,88,0.00,,,0.00,Wunderground v.1.15,2013-10-09 13:21:00,
2013-10-09 06:26:00,56.8,53.0,29.75,West,266,3.0,11.0,87,0.00,,,0.00,Wunderground v.1.15,2013-10-09 13:26:00,
2013-10-09 06:36:00,56.7,52.9,29.75,West,266,3.0,3.0,87,0.00,,,0.00,Wunderground v.1.15,2013-10-09 13:36:00,
2013-10-09 06:41:00,56.7,52.9,29.75,West,273,3.0,4.0,87,0.00,,,0.00,Wunderground v.1.15,2013-10-09 13:41:00,
2013-10-09 06:51:00,56.5,52.7,29.75,WNW,282,2.0,11.0,87,0.00,,,0.00,Wunderground v.1.15,2013-10-09 13:51:00,
2013-10-09 06:56:00,56.4,52.6,29.75,West,274,2.0,11.0,87,0.00,,,0.00,Wunderground v.1.15,2013-10-09 13:56:00,
2013-10-09 07:06:00,56.4,52.9,29.75,West,271,3.0,3.0,88,0.00,,,0.00,Wunderground v.1.15,2013-10-09 14:06:00,
2013-10-09 07:11:00,56.6,53.1,29.75,WSW,256,3.0,11.0,88,0.00,,,0.00,Wunderground v.1.15,2013-10-09 14:11:00,
2013-10-09 07:21:00,56.7,52.9,29.75,West,281,2.0,11.0,87,0.00,,,0.00,Wunderground v.1.15,2013-10-09 14:21:00,
2013-10-09 07:31:00,56.5,52.7,29.76,West,262,2.0,11.0,87,0.00,,,0.00,Wunderground v.1.15,2013-10-09 14:31:00,
2013-10-09 07:36:00,56.6,52.8,29.76,WSW,253,2.0,11.0,87,0.00,,,0.00,Wunderground v.1.15,2013-10-09 14:36:00,
2013-10-09 07:46:00,56.5,52.7,29.76,WNW,283,1.0,11.0,87,0.00,,,0.00,Wunderground v.1.15,2013-10-09 14:46:00,
2013-10-09 07:51:00,56.6,53.1,29.76,West,281,2.0,11.0,88,0.00,,,0.00,Wunderground v.1.15,2013-10-09 14:51:00,
2013-10-09 08:01:00,56.8,53.0,29.76,WNW,294,2.0,11.0,87,0.00,,,0.00,Wunderground v.1.15,2013-10-09 15:01:00,
2013-10-09 08:06:00,56.8,53.0,29.76,WNW,285,2.0,2.0,87,0.00,,,0.00,Wunderground v.1.15,2013-10-09 15:06:00,
2013-10-09 08:16:00,57.3,53.5,29.76,West,259,2.0,2.0,87,0.00,,,0.00,Wunderground v.1.15,2013-10-09 15:16:00,
2013-10-09 08:21:00,57.6,53.4,29.76,West,261,2.0,11.0,86,0.00,,,0.00,Wunderground v.1.15,2013-10-09 15:21:00,
2013-10-09 08:31:00,58.2,53.7,29.76,WSW,243,2.0,11.0,85,0.00,,,0.00,Wunderground v.1.15,2013-10-09 15:31:00,
2013-10-09 08:36:00,59.0,54.2,29.76,SW,215,3.0,11.0,84,0.00,,,0.00,Wunderground v.1.15,2013-10-09 15:36:00,
2013-10-09 08:46:00,59.7,54.2,29.76,SSW,210,7.0,11.0,82,0.00,,,0.00,Wunderground v.1.15,2013-10-09 15:46:00,
2013-10-09 08:51:00,60.4,53.9,29.77,SW,229,8.0,11.0,79,0.00,,,0.00,Wunderground v.1.15,2013-10-09 15:51:00,
2013-10-09 09:01:00,61.0,53.7,29.75,SSW,201,9.0,11.0,77,0.00,,,0.00,Wunderground v.1.15,2013-10-09 16:01:00,
2013-10-09 09:11:00,61.7,53.7,29.76,SW,219,8.0,11.0,75,0.00,,,0.00,Wunderground v.1.15,2013-10-09 16:11:00,
2013-10-09 09:16:00,61.8,52.7,29.76,SW,215,7.0,11.0,72,0.00,,,0.00,Wunderground v.1.15,2013-10-09 16:16:00,
2013-10-09 09:26:00,61.4,49.9,29.76,SW,218,9.0,11.0,66,0.00,,,0.00,Wunderground v.1.15,2013-10-09 16:26:00,
2013-10-09 09:31:00,61.1,50.5,29.76,SSW,207,10.0,11.0,68,0.00,,,0.00,Wunderground v.1.15,2013-10-09 16:31:00,
2013-10-09 09:41:00,60.4,51.3,29.76,WSW,253,9.0,11.0,72,0.00,,,0.00,Wunderground v.1.15,2013-10-09 16:41:00,
2013-10-09 09:46:00,60.0,51.3,29.76,WSW,253,8.0,8.0,73,0.00,,,0.00,Wunderground v.1.15,2013-10-09 16:46:00,
2013-10-09 09:56:00,59.6,51.7,29.76,SSW,212,6.0,6.0,75,0.00,,,0.00,Wunderground v.1.15,2013-10-09 16:56:00,
2013-10-09 10:06:00,59.9,52.3,29.76,South,183,6.0,11.0,76,0.00,,,0.00,Wunderground v.1.15,2013-10-09 17:06:00,
2013-10-09 10:11:00,60.3,52.7,29.76,SSW,203,7.0,11.0,76,0.00,,,0.00,Wunderground v.1.15,2013-10-09 17:11:00,
2013-10-09 10:21:00,61.1,53.1,29.76,SW,217,9.0,11.0,75,0.00,,,0.00,Wunderground v.1.15,2013-10-09 17:21:00,
2013-10-09 10:26:00,61.4,52.3,29.76,WNW,287,8.0,8.0,72,0.00,,,0.00,Wunderground v.1.15,2013-10-09 17:26:00,
2013-10-09 10:36:00,61.3,51.8,29.76,West,276,5.0,11.0,71,0.00,,,0.00,Wunderground v.1.15,2013-10-09 17:36:00,
2013-10-09 10:41:00,61.5,51.2,29.75,WSW,238,5.0,11.0,69,0.00,,,0.00,Wunderground v.1.15,2013-10-09 17:41:00,
2013-10-09 10:51:00,61.8,49.9,29.75,West,267,5.0,11.0,65,0.00,,,0.00,Wunderground v.1.15,2013-10-09 17:51:00,
2013-10-09 11:01:00,61.9,50.0,29.75,WSW,253,6.0,11.0,65,0.00,,,0.00,Wunderground v.1.15,2013-10-09 18:01:00,
2013-10-09 11:11:00,62.2,50.7,29.75,West,267,6.0,11.0,66,0.00,,,0.00,Wunderground v.1.15,2013-10-09 18:11:00,
2013-10-09 11:21:00,61.7,50.6,29.75,WSW,255,8.0,11.0,67,0.00,,,0.00,Wunderground v.1.15,2013-10-09 18:21:00,
2013-10-09 11:26:00,61.5,50.8,29.75,SW,232,8.0,11.0,68,0.00,,,0.00,Wunderground v.1.15,2013-10-09 18:26:00,
2013-10-09 11:36:00,61.7,50.6,29.75,SW,236,9.0,9.0,67,0.00,,,0.00,Wunderground v.1.15,2013-10-09 18:36:00,
2013-10-09 11:46:00,62.7,50.8,29.75,WSW,239,7.0,12.0,65,0.00,,,0.00,Wunderground v.1.15,2013-10-09 18:46:00,
2013-10-09 11:51:00,62.4,50.9,29.74,SSW,198,8.0,12.0,66,0.00,,,0.00,Wunderground v.1.15,2013-10-09 18:51:00,
2013-10-09 12:01:00,62.0,50.9,29.74,SW,233,11.0,16.0,67,0.00,,,0.00,Wunderground v.1.15,2013-10-09 19:01:00,
2013-10-09 12:06:00,61.7,51.4,29.74,SSW,200,13.0,13.0,69,0.00,,,0.00,Wunderground v.1.15,2013-10-09 19:06:00,
2013-10-09 12:16:00,62.1,51.8,29.73,SW,217,14.0,14.0,69,0.00,,,0.00,Wunderground v.1.15,2013-10-09 19:16:00,
2013-10-09 12:21:00,62.2,51.9,29.73,WSW,253,14.0,14.0,69,0.00,,,0.00,Wunderground v.1.15,2013-10-09 19:21:00,
2013-10-09 12:31:00,63.0,51.9,29.73,SW,219,13.0,14.0,67,0.00,,,0.00,Wunderground v.1.15,2013-10-09 19:31:00,
2013-10-09 12:36:00,63.4,51.0,29.73,SW,230,13.0,14.0,64,0.00,,,0.00,Wunderground v.1.15,2013-10-09 19:36:00,
2013-10-09 12:46:00,62.3,50.8,29.72,South,172,13.0,14.0,66,0.00,,,0.00,Wunderground v.1.15,2013-10-09 19:46:00,
2013-10-09 12:51:00,62.7,51.2,29.72,SSW,210,14.0,18.0,66,0.00,,,0.00,Wunderground v.1.15,2013-10-09 19:51:00,
2013-10-09 13:01:00,61.4,49.9,29.72,WSW,238,17.0,17.0,66,0.00,,,0.00,Wunderground v.1.15,2013-10-09 20:01:00,
2013-10-09 13:06:00,60.6,49.6,29.71,West,278,15.0,15.0,67,0.00,,,0.00,Wunderground v.1.15,2013-10-09 20:06:00,
2013-10-09 13:16:00,60.4,52.1,29.71,WSW,239,16.0,19.0,74,0.00,,,0.00,Wunderground v.1.15,2013-10-09 20:16:00,
2013-10-09 13:21:00,60.1,51.8,29.71,WSW,250,16.0,19.0,74,0.00,,,0.00,Wunderground v.1.15,2013-10-09 20:21:00,
2013-10-09 13:31:00,59.2,50.9,29.71,SW,235,15.0,16.0,74,0.00,,,0.00,Wunderground v.1.15,2013-10-09 20:31:00,
2013-10-09 13:41:00,59.3,50.6,29.71,WSW,250,12.0,17.0,73,0.00,,,0.00,Wunderground v.1.15,2013-10-09 20:41:00,
2013-10-09 13:51:00,59.9,49.3,29.71,SW,232,11.0,13.0,68,0.00,,,0.00,Wunderground v.1.15,2013-10-09 20:51:00,
2013-10-09 14:01:00,61.3,49.0,29.70,WSW,238,10.0,11.0,64,0.00,,,0.00,Wunderground v.1.15,2013-10-09 21:01:00,
2013-10-09 14:11:00,62.4,49.6,29.69,WSW,255,9.0,11.0,63,0.00,,,0.00,Wunderground v.1.15,2013-10-09 21:11:00,
2013-10-09 14:16:00,62.8,48.7,29.69,WSW,252,10.0,11.0,60,0.00,,,0.00,Wunderground v.1.15,2013-10-09 21:16:00,
2013-10-09 14:26:00,63.3,48.3,29.68,SSW,205,9.0,13.0,58,0.00,,,0.00,Wunderground v.1.15,2013-10-09 21:26:00,
2013-10-09 14:31:00,63.9,48.4,29.68,South,189,11.0,13.0,57,0.00,,,0.00,Wunderground v.1.15,2013-10-09 21:31:00,
2013-10-09 14:41:00,64.0,48.9,29.68,South,169,12.0,17.0,58,0.00,,,0.00,Wunderground v.1.15,2013-10-09 21:41:00,
2013-10-09 14:51:00,64.3,48.7,29.68,SSW,200,12.0,12.0,57,0.00,,,0.00,Wunderground v.1.15,2013-10-09 21:51:00,
2013-10-09 15:01:00,64.7,49.1,29.67,SW,214,13.0,19.0,57,0.00,,,0.00,Wunderground v.1.15,2013-10-09 22:01:00,
2013-10-09 15:11:00,64.7,49.1,29.67,SW,225,14.0,18.0,57,0.00,,,0.00,Wunderground v.1.15,2013-10-09 22:11:00,
2013-10-09 15:21:00,64.3,48.7,29.67,SSW,198,17.0,23.0,57,0.00,,,0.00,Wunderground v.1.15,2013-10-09 22:21:00,
2013-10-09 15:31:00,64.2,49.6,29.67,SW,235,18.0,18.0,59,0.00,,,0.00,Wunderground v.1.15,2013-10-09 22:31:00,
2013-10-09 15:41:00,63.7,48.2,29.67,SW,235,17.0,22.0,57,0.00,,,0.00,Wunderground v.1.15,2013-10-09 22:41:00,
2013-10-09 15:51:00,63.0,47.5,29.67,South,190,16.0,17.0,57,0.00,,,0.00,Wunderground v.1.15,2013-10-09 22:51:00,
2013-10-09 15:56:00,62.8,48.3,29.67,SW,215,15.0,19.0,59,0.00,,,0.00,Wunderground v.1.15,2013-10-09 22:56:00,
2013-10-09 16:06:00,63.0,48.0,29.67,SW,224,15.0,15.0,58,0.00,,,0.00,Wunderground v.1.15,2013-10-09 23:06:00,
2013-10-09 16:11:00,63.2,48.2,29.67,SSW,194,12.0,15.0,58,0.00,,,0.00,Wunderground v.1.15,2013-10-09 23:11:00,
2013-10-09 16:21:00,63.1,45.7,29.68,NNW,339,11.0,12.0,53,0.00,,,0.00,Wunderground v.1.15,2013-10-09 23:21:00,
2013-10-09 16:26:00,61.7,43.9,29.67,NNE,13,7.0,7.0,52,0.00,,,0.00,Wunderground v.1.15,2013-10-09 23:26:00,
2013-10-09 16:36:00,60.6,43.9,29.67,NNW,339,5.0,5.0,54,0.00,,,0.00,Wunderground v.1.15,2013-10-09 23:36:00,
2013-10-09 16:41:00,60.4,44.2,29.67,WNW,300,5.0,11.0,55,0.00,,,0.00,Wunderground v.1.15,2013-10-09 23:41:00,
2013-10-09 16:51:00,60.4,43.7,29.68,NE,55,3.0,11.0,54,0.00,,,0.00,Wunderground v.1.15,2013-10-09 23:51:00,
2013-10-09 16:56:00,61.3,44.5,29.68,NW,318,1.0,11.0,54,0.00,,,0.00,Wunderground v.1.15,2013-10-09 23:56:00,
2013-10-09 17:06:00,62.6,44.2,29.67,NW,309,2.0,2.0,51,0.00,,,0.00,Wunderground v.1.15,2013-10-10 00:06:00,
2013-10-09 17:11:00,63.0,44.6,29.67,SE,125,1.0,11.0,51,0.00,,,0.00,Wunderground v.1.15,2013-10-10 00:11:00,
2013-10-09 17:21:00,63.3,44.3,29.67,SW,229,5.0,11.0,50,0.00,,,0.00,Wunderground v.1.15,2013-10-10 00:21:00,
2013-10-09 17:26:00,63.2,45.8,29.67,South,184,10.0,11.0,53,0.00,,,0.00,Wunderground v.1.15,2013-10-10 00:26:00,
2013-10-09 17:36:00,62.1,46.2,29.67,SW,222,12.0,13.0,56,0.00,,,0.00,Wunderground v.1.15,2013-10-10 00:36:00,
2013-10-09 17:46:00,61.7,46.8,29.67,SSW,199,13.0,13.0,58,0.00,,,0.00,Wunderground v.1.15,2013-10-10 00:46:00,
2013-10-09 17:51:00,61.4,47.4,29.67,South,183,15.0,15.0,60,0.00,,,0.00,Wunderground v.1.15,2013-10-10 00:51:00,
2013-10-09 18:01:00,61.0,47.9,29.68,SW,226,14.0,19.0,62,0.00,,,0.00,Wunderground v.1.15,2013-10-10 01:01:00,
2013-10-09 18:06:00,60.7,48.0,29.68,SSW,211,12.0,12.0,63,0.00,,,0.00,Wunderground v.1.15,2013-10-10 01:06:00,
2013-10-09 18:16:00,59.8,48.0,29.68,SW,235,11.0,11.0,65,0.00,,,0.00,Wunderground v.1.15,2013-10-10 01:16:00,
2013-10-09 18:21:00,59.5,48.1,29.68,SW,231,10.0,11.0,66,0.00,,,0.00,Wunderground v.1.15,2013-10-10 01:21:00,
2013-10-09 18:26:00,59.4,48.0,29.68,SW,222,9.0,9.0,66,0.00,,,0.00,Wunderground v.1.15,2013-10-10 01:26:00,
2013-10-09 18:36:00,59.2,48.2,29.68,SW,234,8.0,8.0,67,0.00,,,0.00,Wunderground v.1.15,2013-10-10 01:36:00,
2013-10-09 18:46:00,59.1,48.1,29.69,SW,229,7.0,7.0,67,0.00,,,0.00,Wunderground v.1.15,2013-10-10 01:46:00,
2013-10-09 18:51:00,58.7,47.8,29.69,South,191,6.0,11.0,67,0.00,,,0.00,Wunderground v.1.15,2013-10-10 01:51:00,
2013-10-09 19:01:00,58.4,48.3,29.69,SSW,204,6.0,11.0,69,0.00,,,0.00,Wunderground v.1.15,2013-10-10 02:01:00,
2013-10-09 19:11:00,57.9,49.3,29.69,South,188,7.0,8.0,73,0.00,,,0.00,Wunderground v.1.15,2013-10-10 02:11:00,
2013-10-09 19:21:00,57.6,49.4,29.70,SSW,200,7.0,11.0,74,0.00,,,0.00,Wunderground v.1.15,2013-10-10 02:21:00,
2013-10-09 19:31:00,57.2,49.3,29.70,SSW,195,6.0,11.0,75,0.00,,,0.00,Wunderground v.1.15,2013-10-10 02:31:00,
2013-10-09 19:36:00,57.0,49.2,29.70,SSW,200,5.0,5.0,75,0.00,,,0.00,Wunderground v.1.15,2013-10-10 02:36:00,
2013-10-09 19:46:00,56.6,48.8,29.70,South,186,4.0,11.0,75,0.00,,,0.00,Wunderground v.1.15,2013-10-10 02:46:00,
2013-10-09 19:51:00,56.3,48.5,29.71,South,179,3.0,11.0,75,0.00,,,0.00,Wunderground v.1.15,2013-10-10 02:51:00,
2013-10-09 20:01:00,56.1,48.6,29.71,SW,222,2.0,11.0,76,0.00,,,0.00,Wunderground v.1.15,2013-10-10 03:01:00,
2013-10-09 20:06:00,55.9,48.4,29.72,South,181,1.0,11.0,76,0.00,,,0.00,Wunderground v.1.15,2013-10-10 03:06:00,
2013-10-09 20:16:00,55.4,48.0,29.72,SSE,150,1.0,11.0,76,0.00,,,0.00,Wunderground v.1.15,2013-10-10 03:16:00,
2013-10-09 20:21:00,55.1,47.7,29.72,SSE,150,2.0,11.0,76,0.00,,,0.00,Wunderground v.1.15,2013-10-10 03:21:00,
2013-10-09 20:31:00,54.6,47.5,29.72,SSE,160,1.0,11.0,77,0.00,,,0.00,Wunderground v.1.15,2013-10-10 03:31:00,
2013-10-09 20:41:00,54.2,47.5,29.72,SSE,151,0.0,11.0,78,0.00,,,0.00,Wunderground v.1.15,2013-10-10 03:41:00,
2013-10-09 20:46:00,54.0,47.3,29.72,SSE,164,0.0,11.0,78,0.00,,,0.00,Wunderground v.1.15,2013-10-10 03:46:00,
2013-10-09 20:56:00,54.0,47.6,29.73,WSW,242,0.0,11.0,79,0.00,,,0.00,Wunderground v.1.15,2013-10-10 03:56:00,
2013-10-09 21:01:00,54.3,47.9,29.73,West,281,0.0,11.0,79,0.00,,,0.00,Wunderground v.1.15,2013-10-10 04:01:00,
2013-10-09 21:06:00,54.3,47.6,29.74,NW,305,0.0,11.0,78,0.00,,,0.00,Wunderground v.1.15,2013-10-10 04:06:00,
2013-10-09 21:11:00,54.2,47.8,29.74,North,6,1.0,11.0,79,0.00,,,0.00,Wunderground v.1.15,2013-10-10 04:11:00,
2013-10-09 21:21:00,53.7,46.7,29.74,SE,128,1.0,11.0,77,0.00,,,0.00,Wunderground v.1.15,2013-10-10 04:21:00,
2013-10-09 21:31:00,52.1,45.8,29.75,SE,128,0.0,11.0,79,0.00,,,0.00,Wunderground v.1.15,2013-10-10 04:31:00,
2013-10-09 21:41:00,51.5,45.9,29.76,SSW,202,0.0,11.0,81,0.00,,,0.00,Wunderground v.1.15,2013-10-10 04:41:00,
2013-10-09 21:51:00,51.0,45.4,29.76,SE,143,1.0,11.0,81,0.00,,,0.00,Wunderground v.1.15,2013-10-10 04:51:00,
2013-10-09 21:56:00,50.7,45.4,29.76,SE,129,1.0,11.0,82,0.00,,,0.00,Wunderground v.1.15,2013-10-10 04:56:00,
2013-10-09 22:01:00,50.5,45.5,29.77,SE,129,1.0,11.0,83,0.00,,,0.00,Wunderground v.1.15,2013-10-10 05:01:00,
2013-10-09 22:11:00,50.7,46.0,29.78,East,85,0.0,11.0,84,0.00,,,0.00,Wunderground v.1.15,2013-10-10 05:11:00,
2013-10-09 22:16:00,50.2,45.2,29.78,East,82,0.0,11.0,83,0.00,,,0.00,Wunderground v.1.15,2013-10-10 05:16:00,
2013-10-09 22:26:00,50.7,46.0,29.78,ENE,66,2.0,11.0,84,0.00,,,0.00,Wunderground v.1.15,2013-10-10 05:26:00,
2013-10-09 22:31:00,50.3,45.6,29.78,NE,39,2.0,11.0,84,0.00,,,0.00,Wunderground v.1.15,2013-10-10 05:31:00,
2013-10-09 22:41:00,50.9,46.9,29.79,NE,47,2.0,11.0,86,0.00,,,0.00,Wunderground v.1.15,2013-10-10 05:41:00,
2013-10-09 22:46:00,50.7,46.0,29.79,East,97,3.0,11.0,84,0.00,,,0.00,Wunderground v.1.15,2013-10-10 05:46:00,
2013-10-09 22:56:00,49.1,44.8,29.79,ENE,72,2.0,11.0,85,0.00,,,0.00,Wunderground v.1.15,2013-10-10 05:56:00,
2013-10-09 23:06:00,49.0,45.0,29.79,NE,55,2.0,11.0,86,0.00,,,0.00,Wunderground v.1.15,2013-10-10 06:06:00,
2013-10-09 23:11:00,48.9,45.2,29.79,ENE,61,2.0,11.0,87,0.00,,,0.00,Wunderground v.1.15,2013-10-10 06:11:00,
2013-10-09 23:21:00,48.1,44.4,29.80,ENE,73,3.0,11.0,87,0.00,,,0.00,Wunderground v.1.15,2013-10-10 06:21:00,
2013-10-09 23:26:00,48.1,44.7,29.80,NE,51,2.0,11.0,88,0.00,,,0.00,Wunderground v.1.15,2013-10-10 06:26:00,
2013-10-09 23:36:00,48.3,44.9,29.80,NE,53,2.0,11.0,88,0.00,,,0.00,Wunderground v.1.15,2013-10-10 06:36:00,
2013-10-09 23:41:00,48.1,44.4,29.80,East,97,2.0,11.0,87,0.00,,,0.00,Wunderground v.1.15,2013-10-10 06:41:00,
2013-10-09 23:51:00,47.2,43.8,29.80,East,86,3.0,11.0,88,0.00,,,0.00,Wunderground v.1.15,2013-10-10 06:51:00,
2013-10-09 23:56:00,46.8,43.4,29.80,East,93,3.0,3.0,88,0.00,,,0.00,Wunderground v.1.15,2013-10-10 06:56:00,